This demonstration page uses our WeatherBlox Daily Observations layout. Learn more.

39.92423, -83.80882

Hourly Observations for September 24, 2017

Temp ( °F °C ) Dew Point ( °F °C ) Humidity (%) Winds ( mph kmh ) Pressure ( in mb ) Visibility ( mi km ) Precip ( " mm )
12:56 am 00:56 Clear 64 17.8 60 15.6 87 87 Calm 30.09 1019 10 16.09344 0 0
1:56 am 01:56 Clear 61 16.1 58 14.4 90 90 ENE 5 7 30.09 1019 10 16.09344 0 0
2:56 am 02:56 Clear 62 16.7 58 14.4 86 86 E 5 7 30.09 1019 10 16.09344 0 0
3:56 am 03:56 Clear 63 17.2 58 14.4 84 84 ENE 5 7 30.09 1019 10 16.09344 0 0
4:56 am 04:56 Clear 63 17.2 57 13.9 81 81 NE 6 9 30.09 1019 10 16.09344 0 0
5:56 am 05:56 Clear 61 16.1 57 13.9 87 87 Calm 30.09 1019 10 16.09344 0 0
6:56 am 06:56 Clear 60 15.6 56 13.3 86 86 Calm 30.12 1020 10 16.09344 0 0
7:56 am 07:56 Sunny 61 16.1 56 13.3 84 84 Calm 30.12 1020 10 16.09344 0 0
8:56 am 08:56 Sunny 68 20 61 16.1 78 78 ESE 8 13 30.12 1020 10 16.09344 0 0
9:56 am 09:56 Sunny 73 22.8 61 16.1 66 66 ESE 8 13 30.12 1020 10 16.09344 0 0
10:56 am 10:56 Sunny 79 26.1 62 16.7 56 56 SE 8 13 30.12 1020 10 16.09344 0 0
11:56 am 11:56 Sunny 84 28.9 60 15.6 44 44 SE 10 17 30.12 1020 10 16.09344 0 0
12:56 pm 12:56 Sunny 88 31.1 56 13.3 34 34 SSE 9 15 30.09 1019 10 16.09344 0 0
1:56 pm 13:56 Sunny 89 31.7 55 12.8 31 31 SSE 13 20 30.09 1019 10 16.09344 0 0
2:56 pm 14:56 Sunny 88 31.1 55 12.8 33 33 E 16 26 30.06 1018 10 16.09344 0 0
3:56 pm 15:56 Sunny 89 31.7 58 14.4 35 35 ESE 13 20 30.06 1018 10 16.09344 0 0
4:56 pm 16:56 Sunny 88 31.1 58 14.4 36 36 SE 10 17 30.03 1017 10 16.09344 0 0
5:56 pm 17:56 Sunny 87 30.6 59 15 39 39 SE 8 13 30.03 1017 10 16.09344 0 0
6:56 pm 18:56 Sunny 81 27.2 59 15 47 47 ESE 7 11 30.03 1017 10 16.09344 0 0
7:56 pm 19:56 Clear 74 23.3 59 15 60 60 ESE 3 6 30.06 1018 10 16.09344 0 0
8:56 pm 20:56 Clear 69 20.6 60 15.6 73 73 Calm 30.06 1018 10 16.09344 0 0
9:56 pm 21:56 Clear 69 20.6 60 15.6 73 73 Calm 30.06 1018 10 16.09344 0 0
10:56 pm 22:56 Clear 65 18.3 60 15.6 84 84 ESE 3 6 30.06 1018 10 16.09344 0 0
11:56 pm 23:56 Clear 64 17.8 60 15.6 87 87 Calm 30.06 1018 10 16.09344 0 0

Powered by AerisWeather